Location: Bezawada
(16.5136°N, 80.6297°E)
Time: 22:27:58
(UTC+00:00)

Cosmos 1151 Rocket - Pass Details

Date: 27 February 2020
Orbit: 592 x 616 km, 82.5° (Epoch: 05 April)

Event Time Altitude Azimuth Distance (km) Brightness Sun altitude
Rises 23:32:34 0° 188° (S) 2,835 6.4 -20.9°
Reaches altitude 10° 23:34:46 10° 190° (S) 1,937 5.5 -20.3°
Maximum altitude 23:39:02 73° 274° (W) 635 2.8 -19.3°
Drops below altitude 10° 23:43:21 10° 360° (N) 1,956 5.6 -18.3°
Sets 23:45:35 0° 2° (N) 2,865 6.5 -17.7°
